Overview Statistics Trail Chart Weather Telemetry Raw packets
 

This is the latest recevied weather packets stored in our database for station/object KO4LCK. If no packets are shown the sender has not sent any weather packets the latest 10 day(s).

<< 40 41 42 43 44 45 46 >>
Time Temp. Humidity Pressure Rain* Wind** Luminosity Snow
1788375027 36.67° C 43% 1019.3 hPa 0 mm - 126 W/m² -
1788374727 36.67° C 44% 1019.3 hPa 0 mm - 141 W/m² -
1788374422 37.22° C 42% 1019.3 hPa 0 mm - 686 W/m² -
1788374119 38.33° C 39% 1019.4 hPa 0 mm - 205 W/m² -
1788373815 38.89° C 42% 1019.4 hPa 0 mm - 772 W/m² -
1788373510 38.33° C 40% 1019.4 hPa 0 mm - 759 W/m² -
1788373206 37.22° C 41% 1019.5 hPa 0 mm - 755 W/m² -
1788372902 37.22° C 44% 1019.5 hPa 0 mm - 698 W/m² -
1788372596 36.67° C 44% 1019.6 hPa 0 mm - 790 W/m² -
1788372296 36.11° C 45% 1019.8 hPa 0 mm - 835 W/m² -
1788371993 36.11° C 45% 1019.6 hPa 0 mm - 233 W/m² -
1788371693 36.67° C 44% 1019.6 hPa 0 mm - 273 W/m² -
1788371388 37.78° C 42% 1019.7 hPa 0 mm - 239 W/m² -
1788371085 37.22° C 44% 1019.8 hPa 0 mm - 698 W/m² -
1788370780 36.67° C 45% 1020 hPa 0 mm - 775 W/m² -
1788370479 36.11° C 48% 1020.1 hPa 0 mm - 774 W/m² -
1788370175 35° C 49% 1020.2 hPa 0 mm - 743 W/m² -
1788369874 34.44° C 50% 1020.1 hPa 0 mm - 766 W/m² -
1788369569 34.44° C 50% 1020.2 hPa 0 mm - 195 W/m² -
1788369265 35° C 47% 1020.3 hPa 0 mm - 184 W/m² -
1788368961 36.11° C 46% 1020.5 hPa 0 mm - 182 W/m² -
1788368656 36.11° C 49% 1020.5 hPa 0 mm - 775 W/m² -
1788368352 36.67° C 47% 1020.5 hPa 0 mm - 585 W/m² -
1788368051 35.56° C 50% 1020.8 hPa 0 mm - 736 W/m² -
1788367746 35.56° C 46% 1020.8 hPa 0 mm - 729 W/m² -

* Rain latest hour (hover to see other rain measurements)
** Current wind speed in m/s (hover to see current wind gust speed)